Lid_Strength_Index
2 3 3 3 4 4 4 4 4 4 4 4 4 4 4 4 4 4 5 4 4 2 2 3 4 4 5 8 9 7 3 4 5 2 4 5 7 7 9 8 8 9 8 7 7 7 7
3 3 4 4 4 4 4 4 4 4 4 4 4 4 4 4 4 5 5 4 2 2 2 3 4 4 6 12 6 7 8 7 6 5 5 5 6 7 9 9 9 8 8 8 8 8 8
3 4 4 4 4 4 4 4 4 4 4 4 4 4 4 5 5 5 5 4 2 2 3 4 4 5 9 10 7 8 8 9 6 6 7 4 5 7 8 10 8 9 11 10 10 9 10
4 4 4 4 4 4 4 4 4 4 4 4 5 5 5 5 5 5 6 5 3 2 2 3 3 5 11 7 7 10 10 10 7 6 6 4 4 6 8 7 9 11 12 15 11 10 9
4 4 4 4 4 4 4 4 4 4 4 5 5 5 5 5 5 6 5 5 5 4 4 3 6 7 13 7 10 10 10 12 10 6 5 5 5 7 8 11 13 12 16 15 13 9 9
5 5 5 5 5 4 4 4 4 4 5 5 5 5 5 5 5 5 5 6 5 5 5 6 9 12 12 14 9 11 11 11 12 11 8 7 8 11 10 12 17 15 15 14 14 10 10
5 5 5 5 4 4 4 4 5 5 5 5 5 5 5 5 6 6 7 7 11 11 10 14 14 14 13 12 10 12 11 12 12 13 16 14 14 16 14 14 14 15 15 16 14 11 11
6 5 5 5 5 5 5 5 5 5 5 5 5 5 5 6 6 6 9 11 12 11 13 10 12 13 12 12 15 13 11 14 15 17 15 16 18 15 14 14 14 13 14 15 13 11 12
6 5 5 5 5 5 5 5 5 5 5 5 6 6 6 6 6 8 12 12 8 8 13 13 12 14 13 12 15 15 13 14 16 17 17 18 15 13 13 13 14 13 15 14 15 14 12
6 5 5 5 5 5 5 5 5 5 6 6 6 6 6 6 8 10 12 10 7 7 16 16 15 14 13 12 15 12 12 13 15 17 16 15 12 13 13 13 12 16 12 12 12 15 18
6 6 6 6 5 5 5 5 6 6 6 6 6 6 6 7 10 12 12 9 7 9 21 16 16 11 12 15 15 14 11 13 16 15 14 15 13 13 13 11 11 13 9 11 12 14 14
7 6 6 6 6 5 5 6 6 6 6 6 7 7 6 9 10 11 10 7 9 15 24 18 15 16 16 15 15 13 13 11 11 14 13 13 9 9 10 9 9 8 10 11 12 13 19
7 7 6 6 6 6 6 6 6 7 7 6 7 8 9 10 13 10 10 9 16 21 16 19 19 16 17 18 16 15 15 15 16 19 18 14 12 9 7 11 9 10 13 18 19 20 19
7 7 7 6 7 7 6 6 7 7 7 7 7 8 8 10 10 10 11 15 22 19 19 16 17 16 18 17 17 15 15 17 13 14 17 18 18 11 9 10 12 12 13 17 23 21 19
7 7 7 7 7 7 7 7 7 7 7 7 7 9 11 11 10 10 13 20 21 20 18 18 17 19 19 16 16 15 15 16 13 12 19 17 17 10 9 8 9 12 15 11 19 16 19
7 7 7 7 7 7 7 7 7 7 7 8 10 11 13 10 9 11 16 20 19 16 16 16 21 18 20 18 17 16 15 13 13 11 10 14 19 11 9 8 8 10 10 16 16 24 22
7 7 8 8 8 8 8 8 8 8 8 8 10 14 12 10 10 15 20 19 17 15 15 17 18 19 17 17 16 16 15 13 12 12 11 12 14 14 11 13 15 13 19 17 18 19 22
7 7 8 8 8 8 8 8 8 8 8 8 12 17 12 11 17 17 20 18 15 16 14 15 15 15 16 17 17 16 14 13 11 12 16 11 13 17 14 12 13 16 19 19 21 22 22
7 7 8 9 9 9 8 8 8 9 9 11 15 16 11 12 20 20 17 17 16 17 16 16 15 14 15 17 22 15 14 11 11 12 13 11 15 19 16 13 13 17 18 18 19 19 24
7 7 8 9 9 9 8 9 9 9 9 11 14 18 16 15 15 18 18 19 19 15 15 14 15 14 16 17 15 19 16 13 11 12 9 10 13 17 20 19 17 21 20 19 20 22 25
7 7 8 9 9 9 9 9 9 9 9 11 14 18 16 19 18 17 17 18 19 19 15 14 16 16 19 24 18 18 16 15 12 13 14 15 19 17 18 19 19 21 21 22 23 23 26
7 8 8 9 9 9 9 9 9 10 10 12 16 17 16 18 17 18 18 20 19 18 17 16 19 17 17 22 20 23 17 17 20 16 17 16 20 18 21 19 20 24 22 22 23 24 25
7 8 8 9 9 9 10 9 10 10 10 14 13 13 15 18 18 18 20 19 18 17 16 15 18 18 18 17 15 14 14 17 20 21 23 25 25 22 21 19 20 26 28 23 23 25 28
7 8 8 9 10 10 10 10 10 10 10 12 13 14 16 20 17 18 18 18 19 18 22 17 15 20 16 13 13 14 18 19 19 23 19 28 29 21 23 22 30 24 21 23 24 24 27
7 8 8 10 10 11 10 10 10 10 9 12 12 14 16 21 18 19 19 19 18 18 18 16 15 15 14 15 19 21 20 21 21 21 24 25 27 26 25 24 25 24 23 27 30 28 28
7 8 9 10 10 11 10 10 10 10 11 14 15 13 15 20 22 19 19 19 22 20 19 16 15 14 14 16 18 25 26 23 25 22 17 21 27 26 27 30 30 26 23 25 28 31 25
8 8 9 10 10 10 10 10 10 11 11 14 16 14 16 22 22 21 21 22 19 20 21 18 19 18 14 19 22 25 25 24 29 27 26 26 28 29 27 32 28 24 23 26 31 27 23
8 9 10 10 10 9 10 10 11 11 12 15 17 15 16 21 23 21 19 21 20 20 22 22 20 20 19 22 21 22 25 26 27 27 29 29 32 29 29 32 31 20 22 27 25 25 24
8 9 10 10 9 10 10 11 11 12 13 14 19 16 15 19 23 18 18 18 20 21 21 21 21 23 22 22 21 22 23 25 27 28 25 29 27 28 27 24 25 23 23 24 25 24 22